PulseSat

PulseSat

GSAT0207 (PRN E07)

Last updated on March 21, 2019, 3:13 a.m. UTC

1 41859U 16069A   19078.07943780 -.00000013  00000-0  00000-0 0  9997
2 41859  54.5956 174.5248 0004336 288.4376  71.5239  1.70473822 14509
UTC
Height (km)
Latitude
Longitude
Inclination
Orbital Period

Next 30 passes for location: Hong Kong

Rise time Rise Azimuth (degrees) Set time Set Azimuth (degrees) Duration Max altitude (degrees)

No matching passes for this satellites

PulseSat

PulseSat is the new satellites software and hardware trackering solution by Pulsely.
Satellite Two Line Element Set source: US Air Force Space Command

Download PulseSat for iOS
© 2017 Pulsely Limited